This demonstration page uses our WeatherBlox Daily Observations layout. Learn more.

40.92945, -100.16068

Hourly Observations for June 22, 2015

Temp ( °F °C ) Dew Point ( °F °C ) Humidity (%) Winds ( mph kmh ) Pressure ( in mb ) Visibility ( mi km ) Precip ( " mm )
12:15 am 00:15 Clear 76 24.7 74 23.1 91 91 SSE 7 11 29.62 1003 10 16.0934 N/A
12:35 am 00:35 Clear 76 24.6 73 22.7 89 89 SSE 7 11 29.62 1003 10 16.0934 N/A
12:55 am 00:55 Clear 76 24.6 72 22 86 86 S 8 13 29.59 1002 10 16.0934 N/A
1:15 am 01:15 Clear 78 25.5 70 21.1 77 77 S 13 20 29.59 1002 10 16.0934 N/A
1:35 am 01:35 Clear 79 25.9 69 20.6 73 73 SSW 16 26 29.59 1002 10 16.0934 N/A
1:55 am 01:55 Clear 78 25.8 68 20.2 71 71 S 16 26 29.59 1002 10 16.0934 N/A
2:15 am 02:15 Clear 78 25.7 68 20 71 71 S 17 28 29.59 1002 10 16.0934 N/A
2:35 am 02:35 Clear 79 26 67 19.7 68 68 S 17 28 29.56 1001 10 16.0934 N/A
2:55 am 02:55 Clear 78 25.7 67 19.7 70 70 S 21 33 29.56 1001 10 16.0934 N/A
3:15 am 03:15 Clear 78 25.8 67 19.7 69 69 S 23 37 29.56 1001 10 16.0934 N/A
3:35 am 03:35 Clear 78 25.6 67 19.7 70 70 SSW 23 37 29.56 1001 10 16.0934 N/A
3:55 am 03:55 Clear 79 25.9 67 19.7 69 69 SSW 22 35 29.56 1001 10 16.0934 N/A
4:15 am 04:15 Clear 78 25.7 67 19.7 70 70 SSW 22 35 29.53 1000 10 16.0934 N/A
4:35 am 04:35 Clear 78 25.7 67 19.6 69 69 SSW 22 35 29.56 1001 10 16.0934 N/A
4:55 am 04:55 Clear 78 25.5 67 19.5 70 70 SSW 20 31 29.56 1001 10 16.0934 N/A
5:15 am 05:15 Clear 78 25.4 67 19.4 69 69 SSW 17 28 29.56 1001 10 16.0934 N/A
5:35 am 05:35 Clear 77 25.2 66 19.1 69 69 SSW 16 26 29.56 1001 10 16.0934 N/A
5:55 am 05:55 Clear 76 24.7 66 19 71 71 SSW 10 17 29.56 1001 10 16.0934 N/A
6:15 am 06:15 Sunny 76 24.5 66 19 72 72 S 5 7 29.59 1002 10 16.0934 N/A
6:35 am 06:35 Sunny 75 23.8 66 18.9 74 74 SSW 6 9 29.62 1003 10 16.0934 N/A
6:55 am 06:55 Sunny 75 24.1 66 19 73 73 SW 9 15 29.62 1003 10 16.0934 N/A
7:15 am 07:15 Sunny 76 24.5 66 19.1 72 72 WSW 5 7 29.59 1002 10 16.0934 N/A
7:35 am 07:35 Sunny 76 24.2 67 19.5 75 75 WNW 5 7 29.65 1004 10 16.0934 N/A
7:55 am 07:55 Sunny 76 24.2 68 20.2 78 78 WNW 7 11 29.65 1004 10 16.0934 N/A
8:15 am 08:15 Sunny 77 25.2 69 20.8 77 77 WNW 7 11 29.62 1003 10 16.0934 N/A
8:35 am 08:35 Sunny 78 25.6 69 20.7 74 74 NW 9 15 29.62 1003 10 16.0934 N/A
8:55 am 08:55 Sunny 78 25.8 70 21 75 75 NNW 17 28 29.65 1004 10 16.0934 N/A
9:15 am 09:15 Partly Cloudy 78 25.7 70 21.3 77 77 NNW 13 20 29.68 1005 10 16.0934 N/A
9:35 am 09:35 Partly Cloudy 77 25.2 69 20.8 77 77 NNW 23 37 29.71 1006 7 11.26538 N/A
9:55 am 09:55 Sunny 76 24.6 68 20.2 77 77 NNW 18 30 29.74 1007 10 16.0934 N/A
10:15 am 10:15 Sunny 76 24.6 68 20 76 76 NNW 17 28 29.74 1007 10 16.0934 N/A
10:35 am 10:35 Sunny 77 24.9 68 19.9 74 74 N 17 28 29.77 1008 10 16.0934 N/A
10:55 am 10:55 Sunny 78 25.3 66 19 68 68 N 21 33 29.77 1008 10 16.0934 N/A
11:15 am 11:15 Sunny 78 25.4 65 18.3 65 65 N 20 31 29.8 1009 10 16.0934 N/A
11:35 am 11:35 Sunny 79 26.1 66 18.9 65 65 NNW 16 26 29.77 1008 10 16.0934 N/A
11:55 am 11:55 Sunny 80 26.4 66 19 64 64 N 17 28 29.77 1008 10 16.0934 N/A
12:15 pm 12:15 Sunny 80 26.7 64 17.8 58 58 N 14 22 29.8 1009 10 16.0934 N/A
12:35 pm 12:35 Sunny 81 27.4 65 18.1 57 57 N 21 33 29.8 1009 10 16.0934 N/A
12:55 pm 12:55 Sunny 82 27.6 64 17.9 56 56 N 18 30 29.8 1009 10 16.0934 N/A
1:15 pm 13:15 Sunny 82 27.7 63 17.1 52 52 N 24 39 29.83 1010 10 16.0934 N/A
1:35 pm 13:35 Sunny 82 28 63 17.2 52 52 N 20 31 29.83 1010 10 16.0934 N/A
1:55 pm 13:55 Sunny 82 28 60 15.8 47 47 N 20 31 29.83 1010 10 16.0934 N/A
2:15 pm 14:15 Sunny 83 28.3 62 16.8 50 50 N 18 30 29.83 1010 10 16.0934 N/A
2:35 pm 14:35 Sunny 83 28.1 63 17.1 51 51 N 17 28 29.85 1011 10 16.0934 N/A
2:55 pm 14:55 Sunny 83 28.3 65 18.2 54 54 N 18 30 29.85 1011 10 16.0934 N/A
3:15 pm 15:15 Sunny 82 28 63 17.3 52 52 NNE 20 31 29.85 1011 10 16.0934 N/A
3:35 pm 15:35 Sunny 82 27.6 62 16.9 52 52 N 20 31 29.85 1011 10 16.0934 N/A
3:55 pm 15:55 Sunny 82 27.6 60 15.6 48 48 N 17 28 29.85 1011 10 16.0934 N/A
4:15 pm 16:15 Sunny 82 27.5 60 15.7 49 49 N 18 30 29.85 1011 10 16.0934 N/A
4:35 pm 16:35 Sunny 82 27.5 60 15.5 48 48 N 17 28 29.88 1012 10 16.0934 N/A
4:55 pm 16:55 Sunny 82 27.6 62 16.4 51 51 NNE 18 30 29.88 1012 10 16.0934 N/A
5:15 pm 17:15 Sunny 81 27.3 58 14.7 46 46 N 15 24 29.91 1013 10 16.0934 N/A
5:35 pm 17:35 Sunny 81 27.1 58 14.5 46 46 NNE 15 24 29.91 1013 10 16.0934 N/A
5:55 pm 17:55 Sunny 81 27.2 59 15 47 47 NNE 12 19 29.91 1013 10 16.0934 N/A
6:15 pm 18:15 Sunny 80 26.9 58 14.5 47 47 NE 16 26 29.91 1013 10 16.0934 N/A
6:35 pm 18:35 Sunny 80 26.5 57 13.9 46 46 NNE 15 24 29.91 1013 10 16.0934 N/A
6:55 pm 18:55 Sunny 79 26.1 56 13.1 45 45 NNE 15 24 29.91 1013 10 16.0934 N/A
7:15 pm 19:15 Sunny 78 25.7 56 13.4 47 47 NNE 14 22 29.91 1013 10 16.0934 N/A
7:35 pm 19:35 Sunny 77 25.1 53 11.8 44 44 NE 14 22 29.91 1013 10 16.0934 N/A
7:55 pm 19:55 Sunny 76 24.7 52 11 42 42 NNE 12 19 29.91 1013 10 16.0934 N/A
8:15 pm 20:15 Sunny 75 24 53 11.5 46 46 NNE 13 20 29.91 1013 10 16.0934 N/A
8:35 pm 20:35 Sunny 74 23.2 52 11.1 47 47 N 13 20 29.94 1014 10 16.0934 N/A
8:55 pm 20:55 Sunny 72 22.1 53 11.6 51 51 N 13 20 29.94 1014 10 16.0934 N/A
9:15 pm 21:15 Clear 70 21.2 53 11.7 55 55 NNE 10 17 29.97 1015 10 16.0934 N/A
9:35 pm 21:35 Clear 68 20 54 12 60 60 NNE 6 9 30 1016 10 16.0934 N/A
9:55 pm 21:55 Clear 65 18.5 55 12.5 68 68 NNE 8 13 30 1016 10 16.0934 N/A
11:55 pm 23:55 Clear 61 16.1 53 11.7 75 75 NNE 8 13 30.06 1018 10 16.0934 N/A

Powered by AerisWeather